GIPSM EINN-EGAC

Flight info

Callsign GIPSM
Flight time 1h 2m
Altitude 5500
Route MCM
Aircraft BE58/L-SDFGRY/C

Departure

Time 2026-04-26 13:51
Airport Shannon Airport (EINN)

Arrival

Time 2026-04-26 14:53
Airport George Best Belfast City Airport (EGAC)
Time Latitude Longitude Altitude Speed Heading
2026-04-26 13:43 52.69231 -8.91354 6 ft 0 kts 220°
2026-04-26 13:46 52.69225 -8.91382 7 ft 8 kts 290°
2026-04-26 13:47 52.69266 -8.91522 7 ft 14 kts 329°
2026-04-26 13:47 52.69402 -8.91450 5 ft 22 kts 17°
2026-04-26 13:47 52.69577 -8.91351 4 ft 25 kts 18°
2026-04-26 13:47 52.69764 -8.91245 4 ft 26 kts 15°
2026-04-26 13:48 52.69951 -8.91154 4 ft 27 kts 18°
2026-04-26 13:48 52.70148 -8.91033 4 ft 22 kts 18°
2026-04-26 13:48 52.70278 -8.91029 4 ft 17 kts 348°
2026-04-26 13:48 52.70394 -8.91066 4 ft 14 kts 349°
2026-04-26 13:49 52.70491 -8.91095 4 ft 11 kts 350°
2026-04-26 13:49 52.70568 -8.91116 5 ft 10 kts 351°
2026-04-26 13:49 52.70647 -8.91142 7 ft 11 kts 348°
2026-04-26 13:49 52.70736 -8.91169 9 ft 12 kts 345°
2026-04-26 13:50 52.70767 -8.91274 11 ft 11 kts 234°
2026-04-26 13:50 52.70646 -8.91534 10 ft 52 kts 232°
2026-04-26 13:50 52.70279 -8.92306 47 ft 92 kts 234°
2026-04-26 13:50 52.69825 -8.93268 237 ft 99 kts 237°
2026-04-26 13:51 52.69334 -8.94350 509 ft 107 kts 234°
2026-04-26 13:51 52.68884 -8.95449 825 ft 106 kts 259°
2026-04-26 13:51 52.69077 -8.96695 956 ft 119 kts 307°
2026-04-26 13:51 52.69681 -8.97856 1071 ft 131 kts 313°
2026-04-26 13:52 52.70340 -8.99000 1263 ft 133 kts 313°
2026-04-26 13:52 52.71060 -9.00143 1349 ft 136 kts 316°
2026-04-26 13:52 52.71889 -9.00978 1538 ft 132 kts 343°
2026-04-26 13:52 52.72931 -9.01053 1623 ft 138 kts
2026-04-26 13:53 52.73977 -9.00538 1616 ft 148 kts 17°
2026-04-26 13:53 52.75058 -8.99913 1697 ft 148 kts 18°
2026-04-26 13:53 52.76099 -8.99279 1819 ft 146 kts 18°
2026-04-26 13:53 52.77161 -8.98622 1860 ft 149 kts 19°
2026-04-26 13:54 52.78216 -8.97927 1914 ft 151 kts 20°
2026-04-26 13:54 52.79288 -8.97184 1938 ft 154 kts 26°
2026-04-26 13:54 52.80241 -8.96065 2009 ft 154 kts 41°
2026-04-26 13:55 52.81852 -8.93378 2111 ft 155 kts 44°
2026-04-26 13:55 52.82378 -8.92483 2145 ft 155 kts 43°
2026-04-26 13:55 52.84261 -8.89238 2230 ft 157 kts 44°
2026-04-26 13:56 52.85066 -8.87813 2220 ft 161 kts 45°
2026-04-26 13:56 52.85864 -8.86364 2252 ft 160 kts 47°
2026-04-26 13:56 52.86651 -8.84859 2215 ft 164 kts 47°
2026-04-26 13:56 52.87481 -8.83343 2190 ft 165 kts 45°
2026-04-26 13:57 52.88344 -8.81840 2211 ft 163 kts 43°
2026-04-26 13:57 52.89239 -8.80375 2186 ft 165 kts 43°
2026-04-26 13:57 52.90144 -8.78903 2182 ft 164 kts 41°
2026-04-26 13:57 52.91086 -8.77491 2202 ft 162 kts 38°
2026-04-26 13:58 52.92094 -8.76239 2168 ft 163 kts 31°
2026-04-26 13:58 52.93175 -8.75131 2143 ft 164 kts 36°
2026-04-26 13:58 52.94038 -8.73493 2052 ft 169 kts 50°
2026-04-26 13:58 52.94810 -8.71843 2158 ft 162 kts 50°
2026-04-26 13:59 52.95612 -8.70243 2093 ft 166 kts 46°
2026-04-26 13:59 52.96480 -8.68641 2101 ft 164 kts 48°
2026-04-26 13:59 52.97285 -8.67021 2122 ft 163 kts 49°
2026-04-26 14:00 52.99593 -8.61976 2146 ft 164 kts 50°
2026-04-26 14:00 53.00381 -8.60270 2155 ft 164 kts 51°
2026-04-26 14:00 53.00890 -8.59129 2167 ft 164 kts 51°
2026-04-26 14:01 53.01916 -8.56836 2164 ft 165 kts 51°
2026-04-26 14:01 53.02681 -8.55111 2172 ft 165 kts 52°
2026-04-26 14:01 53.03413 -8.53427 2173 ft 165 kts 52°
2026-04-26 14:01 53.04131 -8.51779 2180 ft 165 kts 52°
2026-04-26 14:02 53.04858 -8.50136 2190 ft 164 kts 51°
2026-04-26 14:02 53.05580 -8.48536 2190 ft 165 kts 51°
2026-04-26 14:02 53.06300 -8.46936 2197 ft 164 kts 51°
2026-04-26 14:02 53.07025 -8.45347 2200 ft 164 kts 50°
2026-04-26 14:03 53.07757 -8.43770 2205 ft 164 kts 50°
2026-04-26 14:03 53.08482 -8.42237 2213 ft 164 kts 49°
2026-04-26 14:03 53.09212 -8.40720 2211 ft 165 kts 49°
2026-04-26 14:03 53.09951 -8.39178 2218 ft 164 kts 49°
2026-04-26 14:04 53.10685 -8.37650 2223 ft 165 kts 49°
2026-04-26 14:04 53.11418 -8.36139 2223 ft 165 kts 49°
2026-04-26 14:04 53.12141 -8.34650 2230 ft 165 kts 49°
2026-04-26 14:04 53.12876 -8.33163 2398 ft 161 kts 49°
2026-04-26 14:05 53.13554 -8.31719 2618 ft 158 kts 51°
2026-04-26 14:05 53.14207 -8.30154 2686 ft 164 kts 57°
2026-04-26 14:05 53.14726 -8.28450 2836 ft 163 kts 62°
2026-04-26 14:05 53.15282 -8.26825 3008 ft 161 kts 56°
2026-04-26 14:06 53.15906 -8.25231 3116 ft 164 kts 54°
2026-04-26 14:06 53.16548 -8.23614 3258 ft 164 kts 55°
2026-04-26 14:06 53.17167 -8.22020 3406 ft 163 kts 56°
2026-04-26 14:06 53.17786 -8.20386 3520 ft 165 kts 57°
2026-04-26 14:07 53.18389 -8.18732 3655 ft 165 kts 58°
2026-04-26 14:07 53.18975 -8.17035 3787 ft 165 kts 59°
2026-04-26 14:07 53.19533 -8.15295 3901 ft 167 kts 62°
2026-04-26 14:07 53.20074 -8.13489 4034 ft 167 kts 62°
2026-04-26 14:08 53.20601 -8.11730 4162 ft 167 kts 63°
2026-04-26 14:08 53.21127 -8.09951 4275 ft 167 kts 63°
2026-04-26 14:08 53.21638 -8.08152 4390 ft 168 kts 64°
2026-04-26 14:08 53.22121 -8.06329 4510 ft 168 kts 66°
2026-04-26 14:09 53.22569 -8.04464 4624 ft 169 kts 68°
2026-04-26 14:09 53.22988 -8.02570 4730 ft 169 kts 70°
2026-04-26 14:09 53.23359 -8.00673 4836 ft 170 kts 72°
2026-04-26 14:09 53.23676 -7.98699 4949 ft 170 kts 76°
2026-04-26 14:10 53.23909 -7.96675 5055 ft 170 kts 80°
2026-04-26 14:10 53.24313 -7.94783 5071 ft 174 kts 58°
2026-04-26 14:10 53.24968 -7.93079 5229 ft 169 kts 54°
2026-04-26 14:10 53.25646 -7.91458 5345 ft 168 kts 54°
2026-04-26 14:11 53.26922 -7.88037 5354 ft 169 kts 55°
2026-04-26 14:11 53.27670 -7.86445 5283 ft 172 kts 49°
2026-04-26 14:11 53.28424 -7.84897 5322 ft 169 kts 51°
2026-04-26 14:12 53.29147 -7.83323 5313 ft 170 kts 52°
2026-04-26 14:12 53.29882 -7.81676 5298 ft 171 kts 52°
2026-04-26 14:12 53.30627 -7.80072 5320 ft 169 kts 50°
2026-04-26 14:12 53.31446 -7.78508 5319 ft 169 kts 45°
2026-04-26 14:13 53.33174 -7.75696 5319 ft 169 kts 42°
2026-04-26 14:13 53.34066 -7.74280 5308 ft 170 kts 42°
2026-04-26 14:13 53.34974 -7.72846 5304 ft 170 kts 42°
2026-04-26 14:14 53.35841 -7.71473 5302 ft 170 kts 42°
2026-04-26 14:14 53.36589 -7.70282 5311 ft 170 kts 42°
2026-04-26 14:14 53.37448 -7.68903 5309 ft 170 kts 43°
2026-04-26 14:14 53.38333 -7.67466 5311 ft 170 kts 43°
2026-04-26 14:15 53.39176 -7.66081 5315 ft 170 kts 43°
2026-04-26 14:15 53.40025 -7.64677 5312 ft 170 kts 44°
2026-04-26 14:15 53.40879 -7.63245 5319 ft 170 kts 44°
2026-04-26 14:15 53.41747 -7.61766 5319 ft 170 kts 44°
2026-04-26 14:16 53.42601 -7.60307 5312 ft 170 kts 44°
2026-04-26 14:16 53.43441 -7.58869 5316 ft 170 kts 44°
2026-04-26 14:16 53.44274 -7.57428 5314 ft 171 kts 45°
2026-04-26 14:16 53.45108 -7.55955 5320 ft 170 kts 45°
2026-04-26 14:17 53.45927 -7.54470 5315 ft 171 kts 46°
2026-04-26 14:17 53.46730 -7.52989 5330 ft 170 kts 46°
2026-04-26 14:17 53.47535 -7.51470 5321 ft 171 kts 47°
2026-04-26 14:17 53.48328 -7.49923 5330 ft 170 kts 48°
2026-04-26 14:18 53.49109 -7.48339 5336 ft 170 kts 50°
2026-04-26 14:18 53.49864 -7.46735 5332 ft 171 kts 51°
2026-04-26 14:18 53.50597 -7.45087 5342 ft 170 kts 53°
2026-04-26 14:18 53.51310 -7.43376 5340 ft 170 kts 55°
2026-04-26 14:19 53.51977 -7.41636 5342 ft 170 kts 57°
2026-04-26 14:19 53.52597 -7.39857 5334 ft 171 kts 59°
2026-04-26 14:19 53.53178 -7.37998 5332 ft 171 kts 63°
2026-04-26 14:19 53.53702 -7.36086 5329 ft 172 kts 65°
2026-04-26 14:20 53.54162 -7.34155 5318 ft 173 kts 67°
2026-04-26 14:20 53.54820 -7.32435 5273 ft 174 kts 49°
2026-04-26 14:20 53.55633 -7.30834 5326 ft 170 kts 48°
2026-04-26 14:20 53.56448 -7.29284 5338 ft 170 kts 47°
2026-04-26 14:21 53.57269 -7.27756 5298 ft 172 kts 47°
2026-04-26 14:21 53.58105 -7.26207 5336 ft 170 kts 47°
2026-04-26 14:21 53.58923 -7.24671 5329 ft 171 kts 47°
2026-04-26 14:21 53.59745 -7.23095 5317 ft 171 kts 48°
2026-04-26 14:22 53.60538 -7.21523 5344 ft 170 kts 50°
2026-04-26 14:22 53.61311 -7.19918 5329 ft 171 kts 50°
2026-04-26 14:22 53.62097 -7.18323 5316 ft 172 kts 49°
2026-04-26 14:22 53.62918 -7.16748 5325 ft 171 kts 47°
2026-04-26 14:23 53.63741 -7.15230 5322 ft 171 kts 46°
2026-04-26 14:23 53.64572 -7.13731 5337 ft 170 kts 46°
2026-04-26 14:23 53.65431 -7.12197 5323 ft 172 kts 46°
2026-04-26 14:23 53.66274 -7.10677 5328 ft 171 kts 46°
2026-04-26 14:24 53.67083 -7.09184 5345 ft 171 kts 47°
2026-04-26 14:24 53.67885 -7.07653 5332 ft 172 kts 48°
2026-04-26 14:24 53.68677 -7.06074 5338 ft 171 kts 49°
2026-04-26 14:24 53.69498 -7.04533 5342 ft 171 kts 45°
2026-04-26 14:25 53.70364 -7.03086 5335 ft 171 kts 42°
2026-04-26 14:25 53.71276 -7.01714 5358 ft 170 kts 39°
2026-04-26 14:25 53.72226 -7.00408 5362 ft 170 kts 37°
2026-04-26 14:25 53.73203 -6.99160 5361 ft 170 kts 35°
2026-04-26 14:26 53.74208 -6.97948 5362 ft 170 kts 34°
2026-04-26 14:26 53.75231 -6.96755 5354 ft 170 kts 33°
2026-04-26 14:26 53.76248 -6.95557 5357 ft 170 kts 34°
2026-04-26 14:26 53.77244 -6.94351 5352 ft 171 kts 34°
2026-04-26 14:27 53.78255 -6.93072 5350 ft 171 kts 36°
2026-04-26 14:27 53.79219 -6.91778 5351 ft 171 kts 38°
2026-04-26 14:27 53.80186 -6.90441 5356 ft 171 kts 37°
2026-04-26 14:27 53.81154 -6.89157 5357 ft 171 kts 36°
2026-04-26 14:28 53.82148 -6.87865 5372 ft 170 kts 36°
2026-04-26 14:28 53.83136 -6.86590 5368 ft 171 kts 36°
2026-04-26 14:28 53.84120 -6.85306 5381 ft 170 kts 37°
2026-04-26 14:28 53.85083 -6.84013 5380 ft 170 kts 38°
2026-04-26 14:29 53.86041 -6.82669 5384 ft 171 kts 39°
2026-04-26 14:29 53.86977 -6.81271 5380 ft 172 kts 41°
2026-04-26 14:29 53.87894 -6.79785 5391 ft 172 kts 44°
2026-04-26 14:29 53.88744 -6.78269 5376 ft 173 kts 47°
2026-04-26 14:30 53.89557 -6.76635 5399 ft 172 kts 50°
2026-04-26 14:30 53.90307 -6.74904 5384 ft 173 kts 55°
2026-04-26 14:30 53.91011 -6.73130 5384 ft 173 kts 52°
2026-04-26 14:30 53.91771 -6.71505 5283 ft 174 kts 52°
2026-04-26 14:31 53.92407 -6.69586 4932 ft 180 kts 66°
2026-04-26 14:31 53.92985 -6.67681 4743 ft 174 kts 60°
2026-04-26 14:31 53.93550 -6.65841 4545 ft 172 kts 61°
2026-04-26 14:31 53.94178 -6.64018 4233 ft 176 kts 56°
2026-04-26 14:32 53.94926 -6.62352 4027 ft 172 kts 50°
2026-04-26 14:32 53.95685 -6.60695 3796 ft 172 kts 52°
2026-04-26 14:32 53.96331 -6.58909 3512 ft 174 kts 58°
2026-04-26 14:32 53.97063 -6.57274 3294 ft 170 kts 41°
2026-04-26 14:33 53.98103 -6.56121 3002 ft 170 kts 20°
2026-04-26 14:33 53.99210 -6.55244 2850 ft 167 kts 26°
2026-04-26 14:33 54.00256 -6.54261 2679 ft 173 kts 26°
2026-04-26 14:33 54.01302 -6.53056 2552 ft 174 kts 42°
2026-04-26 14:34 54.02148 -6.51477 2537 ft 168 kts 46°
2026-04-26 14:34 54.02954 -6.49982 2472 ft 167 kts 45°
2026-04-26 14:34 54.03794 -6.48471 2378 ft 169 kts 45°
2026-04-26 14:34 54.04629 -6.47002 2377 ft 165 kts 45°
2026-04-26 14:35 54.05438 -6.45443 2329 ft 165 kts 47°
2026-04-26 14:35 54.06192 -6.43853 2344 ft 161 kts 51°
2026-04-26 14:35 54.06872 -6.42251 2279 ft 164 kts 53°
2026-04-26 14:35 54.07540 -6.40573 2237 ft 164 kts 53°
2026-04-26 14:36 54.08225 -6.38884 2218 ft 164 kts 53°
2026-04-26 14:36 54.08928 -6.37152 2166 ft 165 kts 53°
2026-04-26 14:36 54.09600 -6.35474 2154 ft 163 kts 54°
2026-04-26 14:36 54.10252 -6.33813 2134 ft 163 kts 56°
2026-04-26 14:37 54.10887 -6.32156 2133 ft 162 kts 56°
2026-04-26 14:37 54.11511 -6.30481 2097 ft 163 kts 58°
2026-04-26 14:37 54.12110 -6.28784 2067 ft 163 kts 59°
2026-04-26 14:37 54.12664 -6.27098 2058 ft 162 kts 61°
2026-04-26 14:38 54.13207 -6.25367 2029 ft 163 kts 62°
2026-04-26 14:38 54.13733 -6.23644 2015 ft 163 kts 62°
2026-04-26 14:38 54.14240 -6.21913 2001 ft 162 kts 64°
2026-04-26 14:38 54.14704 -6.20330 1982 ft 162 kts 59°
2026-04-26 14:39 54.15277 -6.18688 2001 ft 160 kts 57°
2026-04-26 14:39 54.15895 -6.17102 1980 ft 160 kts 50°
2026-04-26 14:39 54.16652 -6.15750 1976 ft 158 kts 42°
2026-04-26 14:39 54.17455 -6.14467 1971 ft 157 kts 41°
2026-04-26 14:40 54.18278 -6.13200 1926 ft 159 kts 40°
2026-04-26 14:40 54.19095 -6.11935 1940 ft 158 kts 41°
2026-04-26 14:40 54.19888 -6.10650 1931 ft 158 kts 43°
2026-04-26 14:40 54.20667 -6.09281 1913 ft 159 kts 46°
2026-04-26 14:41 54.21394 -6.07848 1920 ft 158 kts 49°
2026-04-26 14:41 54.22115 -6.06344 1906 ft 159 kts 50°
2026-04-26 14:41 54.22803 -6.04831 1903 ft 159 kts 52°
2026-04-26 14:41 54.23475 -6.03202 1922 ft 158 kts 55°
2026-04-26 14:42 54.24130 -6.01579 1919 ft 157 kts 51°
2026-04-26 14:42 54.24834 -6.00074 1959 ft 154 kts 49°
2026-04-26 14:42 54.25542 -5.98659 1917 ft 158 kts 47°
2026-04-26 14:42 54.26294 -5.97213 1923 ft 157 kts 47°
2026-04-26 14:43 54.27072 -5.95834 1935 ft 157 kts 42°
2026-04-26 14:43 54.27885 -5.94545 1904 ft 159 kts 41°
2026-04-26 14:43 54.28714 -5.93239 1910 ft 158 kts 42°
2026-04-26 14:43 54.29514 -5.91905 1918 ft 158 kts 44°
2026-04-26 14:44 54.30324 -5.90550 1914 ft 158 kts 41°
2026-04-26 14:44 54.31158 -5.89286 1930 ft 157 kts 39°
2026-04-26 14:44 54.31995 -5.88085 1946 ft 156 kts 38°
2026-04-26 14:44 54.32866 -5.86859 1939 ft 156 kts 38°
2026-04-26 14:45 54.33714 -5.85661 1935 ft 157 kts 38°
2026-04-26 14:45 54.34267 -5.84879 1946 ft 156 kts 38°
2026-04-26 14:45 54.35383 -5.83294 1931 ft 157 kts 38°
2026-04-26 14:45 54.36240 -5.82137 1946 ft 156 kts 34°
2026-04-26 14:46 54.37132 -5.81070 1946 ft 156 kts 32°
2026-04-26 14:46 54.38043 -5.80067 1922 ft 157 kts 29°
2026-04-26 14:46 54.38985 -5.79126 1946 ft 156 kts 27°
2026-04-26 14:46 54.39984 -5.78373 1908 ft 157 kts 11°
2026-04-26 14:47 54.41076 -5.78397 1814 ft 159 kts 344°
2026-04-26 14:47 54.42063 -5.79163 1889 ft 152 kts 329°
2026-04-26 14:47 54.42976 -5.80050 1864 ft 153 kts 328°
2026-04-26 14:47 54.43901 -5.80956 1857 ft 153 kts 329°
2026-04-26 14:48 54.44834 -5.81821 1883 ft 151 kts 332°
2026-04-26 14:48 54.45791 -5.82611 1862 ft 152 kts 335°
2026-04-26 14:48 54.46745 -5.83406 1874 ft 151 kts 331°
2026-04-26 14:48 54.47642 -5.84293 1877 ft 150 kts 328°
2026-04-26 14:49 54.48541 -5.85292 1858 ft 151 kts 325°
2026-04-26 14:49 54.49397 -5.86324 1880 ft 149 kts 324°
2026-04-26 14:49 54.50254 -5.87397 1835 ft 151 kts 323°
2026-04-26 14:49 54.51121 -5.88499 1742 ft 154 kts 322°
2026-04-26 14:50 54.51965 -5.89638 1722 ft 153 kts 320°
2026-04-26 14:50 54.52767 -5.90818 1611 ft 154 kts 318°
2026-04-26 14:50 54.53582 -5.92018 1510 ft 150 kts 321°
2026-04-26 14:50 54.54442 -5.92990 1467 ft 142 kts 336°
2026-04-26 14:51 54.55387 -5.93229 1380 ft 143 kts 359°
2026-04-26 14:51 54.56352 -5.93129 1241 ft 133 kts
2026-04-26 14:51 54.57221 -5.92720 1023 ft 125 kts 28°
2026-04-26 14:51 54.57908 -5.91894 923 ft 114 kts 34°
2026-04-26 14:52 54.58556 -5.91134 757 ft 113 kts 28°
2026-04-26 14:52 54.59208 -5.90409 605 ft 112 kts 35°
2026-04-26 14:52 54.59833 -5.89613 448 ft 110 kts 32°
2026-04-26 14:52 54.60452 -5.88890 270 ft 104 kts 34°
2026-04-26 14:53 54.61013 -5.88207 77 ft 93 kts 34°
2026-04-26 14:53 54.61494 -5.87641 14 ft 70 kts 36°
2026-04-26 14:53 54.61800 -5.87232 14 ft 31 kts 53°
2026-04-26 14:53 54.61789 -5.87071 14 ft 11 kts 128°
2026-04-26 14:54 54.61734 -5.86997 14 ft 10 kts 191°
2026-04-26 14:54 54.61674 -5.87061 14 ft 10 kts 217°
2026-04-26 14:54 54.61599 -5.87148 14 ft 14 kts 214°
2026-04-26 14:54 54.61509 -5.87257 14 ft 16 kts 217°
2026-04-26 14:55 54.61413 -5.87383 14 ft 16 kts 228°
2026-04-26 14:55 54.61322 -5.87517 14 ft 18 kts 215°
2026-04-26 14:55 54.61213 -5.87642 14 ft 16 kts 205°
2026-04-26 14:55 54.61138 -5.87709 14 ft 7 kts 177°
2026-04-26 14:56 54.61109 -5.87657 14 ft 1 kts 88°
2026-04-26 14:56 54.61113 -5.87652 14 ft 1 kts
2026-04-26 14:56 54.61115 -5.87652 14 ft 0 kts